Content
SEND FEEDBACK

Daily
Averages
Monthly
Summary
United States of America

WILMINGTON, NORTH CAROLINA


Home > North America > United States > North Carolina
Elevation: 72 feet     Latitude: 34 16N     Longitude: 077 54W

WEATHER
 
SELECT A DAY
Number of Records: 211,656;   Date Range: 1/1/95 - 9/29/14
 
SHARE

PRINT THIS DATA

[ ← Previous Day ]
WEATHER ALMANAC - OCTOBER 15, 2013
[ Next Day → ]
[ °C ]   °F
Weather ElementAverageHighLow
Temperature65.5 °F71.6 °F (2:33 pm)62.1 °F (4:53 am)
Dewpoint60.5 °F63 °F (6:53 pm)57.9 °F (6:53 am)
Humidity83.9 %90 % (4:53 am)73 % (2:33 pm)
Barometer30.06 in30.12 in (9:53 am)30.01 in (3:53 pm)
Wind Speed8.4 mph15 mph (2:53 pm)
Weather ElementAverage
Visibility9.8 mi
Wind DirectionSSW (214.5 °)

Weather ElementTotal
Precipitation---
Cooling Degree Days1.8 (Base 65)
Growing Degree Days16.9 (Base 50)
Averaged from 29 records on October 15, 2013
WEATHER CONDITIONS BREAKOUT
WIND DIRECTION BREAKOUT
WEATHER BY HOUR - OCTOBER 15, 2013
[ °C ]   °F
Local TimeTemperatureDewpointHumidityBarometerVisibilityWind DirectionWind SpeedGust SpeedPrecipitationEventsConditions
1:53 AM64.0 °F59.0 °F84 %30.10 in10.0 miNorth (360°)9.2 mphOvercast
2:30 AM64.4 °F59.0 °F83 %30.10 in10.0 miNNE (20°)10.4 mphOvercast
2:53 AM63.0 °F59.0 °F87 %30.09 in10.0 miNorth (10°)9.2 mphOvercast
3:31 AM62.6 °F59.0 °F88 %30.08 in8.0 miNorth (10°)9.2 mphOvercast
3:53 AM63.0 °F59.0 °F87 %30.07 in9.0 miNorth (10°)11.5 mphOvercast
4:53 AM62.1 °F59.0 °F90 %30.08 in6.0 miNNE (20°)9.2 mphOvercast
5:53 AM62.1 °F59.0 °F90 %30.09 in10.0 miNorth (360°)6.9 mphOvercast
6:53 AM62.1 °F57.9 °F86 %30.09 in10.0 miNorth (350°)8.1 mphOvercast
7:53 AM62.1 °F57.9 °F86 %30.09 in10.0 miNorth (10°)9.2 mphOvercast
8:53 AM62.1 °F57.9 °F86 %30.11 in10.0 miNorth (360°)9.2 mphOvercast
9:53 AM62.1 °F57.9 °F86 %30.12 in10.0 miNorth (360°)9.2 mphOvercast
10:53 AM64.0 °F59.0 °F84 %30.10 in10.0 miNorth (360°)8.1 mphOvercast
11:41 AM64.4 °F59.0 °F83 %30.09 in10.0 miNorth (10°)10.4 mphOvercast
11:53 AM66.0 °F59.0 °F78 %30.08 in10.0 miNorth (360°)8.1 mphOvercast
12:53 PM68.0 °F60.1 °F76 %30.07 in10.0 miNorth (10°)6.9 mphOvercast
1:53 PM69.1 °F61.0 °F75 %30.04 in10.0 miNorth (360°)8.1 mphOvercast
2:33 PM71.6 °F62.6 °F73 %30.02 in10.0 miNNE (20°)10.4 mphOvercast
2:53 PM71.1 °F62.1 °F73 %30.02 in10.0 miNorth (10°)15.0 mphOvercast
3:53 PM71.1 °F62.1 °F73 %30.01 in10.0 miNorth (360°)9.2 mphOvercast
4:53 PM69.1 °F62.1 °F78 %30.01 in10.0 miNorth (360°)8.1 mphOvercast
5:53 PM68.0 °F62.1 °F81 %30.02 in10.0 miNorth (360°)8.1 mphOvercast
6:53 PM66.9 °F63.0 °F87 %30.03 in10.0 miNNW (340°)6.9 mphOvercast
7:53 PM66.9 °F63.0 °F87 %30.04 in10.0 miNorth (350°)6.9 mphOvercast
8:10 PM66.2 °F62.6 °F88 %30.04 in10.0 miNorth (350°)5.8 mphOvercast
8:53 PM66.9 °F63.0 °F87 %30.04 in10.0 miNorth (360°)6.9 mphOvercast
9:53 PM64.9 °F62.1 °F90 %30.03 in10.0 miNorth (10°)5.8 mphClear
10:53 PM64.9 °F62.1 °F90 %30.02 in10.0 miNorth (360°)5.8 mphMostly Cloudy
11:34 PM66.2 °F62.6 °F88 %30.01 in10.0 miNorth (10°)5.8 mphOvercast
11:53 PM66.0 °F63.0 °F90 %30.01 in10.0 miNorth (360°)4.6 mphOvercast
Hourly data recorded from KILM, located miles away from Wilmington, North Carolina







STORIES FROM OUR PARTNERS